Weather History for Resia Pass, Italy

Change the Weather History Date:

Thursday, July 3, 2014

  Actual Average Record
Temperature  
Mean Temperature 55 °F -  
Max Temperature 66 °F 63 °F 82 °F (2010)
Min Temperature 44 °F 47 °F 39 °F (1996)
Degree Days  
Heating Degree Days 10    
Growing Degree Days 5 (Base 50)    
Moisture  
Dew Point 42 °F    
Average Humidity 66    
Maximum Humidity 87    
Minimum Humidity 37    
Precipitation  
Precipitation 0.00 in - - ()
Sea Level Pressure  
Sea Level Pressure 30.39 in    
Wind  
Wind Speed 3 mph ()    
Max Wind Speed 8 mph    
Max Gust Speed -    
Averages and records for this station are not official NWS values.
T = Trace of Precipitation, MM = Missing Value Source: Averaged Metar Reports

Daily Weather History Graph

Daily Weather History Graph

Search for Another Location

Airport:

Trip Planner

Search our weather history database for the weather conditions in past years. The results will help you decide how hot, cold, wet, or windy it might be!

Date:

Astronomy

Jul. 03, 2014 Rise Set
Actual Time 5:28 AM CEST 9:15 PM CEST
Civil Twilight 4:49 AM CEST 9:54 PM CEST
Nautical Twilight 3:56 AM CEST 10:47 PM CEST
Astronomical Twilight 2:40 AM CEST 12:03 AM CEST
Moon 11:35 AM CEST (7/3) No Moon Set
Length of Visible Light 17h 04m
Length of Day
15h 46m
Waxing Crescent, 30% of the Moon is Illuminated
Jul 3
Waxing Crescent
Jul 5
First Quarter
Jul 12
Full
Jul 19
Last Quarter
Jul 27
New

Hourly Weather History & Observations

Time (CEST) Temp. Windchill Dew Point Humidity Pressure Visibility Wind Dir Wind Speed Gust Speed Precip Events Conditions
12:55 AM 46.4 °F 45.2 °F 42.8 °F 87% 30.36 in - North 3.5 mph - N/A   Clear
1:55 AM 44.6 °F - 41.0 °F 87% 30.36 in - North 2.3 mph - N/A   Clear
2:55 AM 44.6 °F 43.1 °F 41.0 °F 87% 30.36 in - North 3.5 mph - N/A   Clear
3:55 AM 44.6 °F 43.1 °F 41.0 °F 87% 30.42 in - North 3.5 mph - N/A   Clear
4:55 AM 44.6 °F 43.1 °F 41.0 °F 87% 30.42 in - North 3.5 mph - N/A   Clear
5:55 AM 44.6 °F 43.1 °F 41.0 °F 87% 30.42 in - North 3.5 mph - N/A   Clear
6:55 AM 44.6 °F 43.1 °F 41.0 °F 87% 30.42 in - North 3.5 mph - N/A   Clear
7:55 AM 44.6 °F 43.1 °F 41.0 °F 87% 30.42 in - NNE 3.5 mph - N/A   Clear
8:55 AM 48.2 °F - 41.0 °F 76% 30.42 in - North 5.8 mph - N/A   Clear
9:55 AM 51.8 °F - 44.6 °F 76% 30.42 in - North 4.6 mph - N/A   Clear
10:55 AM 57.2 °F - 41.0 °F 55% 30.42 in - North 3.5 mph - N/A   Clear
11:55 AM 62.6 °F - 41.0 °F 45% 30.42 in - SSW 4.6 mph - N/A   Clear
12:55 PM 62.6 °F - 41.0 °F 45% 30.42 in - SW 4.6 mph - N/A   Clear
1:55 PM 66.2 °F - 39.2 °F 37% 30.42 in - SSW 3.5 mph - N/A   Clear
2:55 PM 64.4 °F - 41.0 °F 42% 30.39 in - SSW 5.8 mph - N/A   Clear
3:55 PM 64.4 °F - 39.2 °F 40% 30.36 in - SSW 4.6 mph - N/A   Clear
4:55 PM 64.4 °F - 39.2 °F 40% 30.36 in - South 8.1 mph - N/A   Clear
5:55 PM 64.4 °F - 41.0 °F 42% 30.36 in - SSW 6.9 mph - N/A   Clear
6:55 PM 62.6 °F - 39.2 °F 42% 30.36 in - SSW 4.6 mph - N/A   Clear
8:55 PM 59.0 °F - 46.4 °F 63% 30.36 in - Calm Calm - N/A   Clear
9:55 PM 55.4 °F - 44.6 °F 67% 30.39 in - Calm Calm - N/A   Clear
10:55 PM 53.6 °F - 46.4 °F 77% 30.39 in - Calm Calm - N/A   Clear
11:55 PM 51.8 °F - 46.4 °F 82% 30.39 in - Calm Calm - N/A   Clear